Flag for Austria

Past Weather in Feldkirchen in Kärnten, Carinthia, Austria — Yesterday and Last 2 Weeks

Now
47 °F

Scattered clouds.


Feels Like: 47 °F
Forecast: 59 / 42 °F
Wind: 1 mph from North

Location: Klagenfurt-Flughafen
Current Time: Oct 22, 2020 at 11:04:35 am
Latest Report: Oct 22, 2020 at 10:00 am
Visibility: 22 mi
Pressure30.20 "Hg(28.28 "Hg at 541m altitude)
Humidity: 79%
Dew Point: 41 °F
Location of Feldkirchen in KärntenLocation

Past Weather in Feldkirchen in Kärnten — Graph

°F

Feldkirchen in Kärnten Temperature Yesterday

Maximum temperature yesterday: 65 °F (at 4:00 pm)
Minimum temperature yesterday: 34 °F (at 8:00 am)
Average temperature yesterday: 48 °F

High & Low Weather Summary for the Past Weeks

 TemperatureHumidityPressure
High65 °F (Oct 21, 4:00 pm)99% (Oct 10, 7:00 am)30.34 "Hg (Oct 10, 7:00 am)
Low33 °F (Oct 14, 8:00 am)37% (Oct 14, 1:00 pm)29.72 "Hg (Oct 14, 4:00 pm)
Average45 °F84%30.05 "Hg
* Reported Oct 7 9:00 am — Oct 22 9:00 am, Feldkirchen in Kärnten. Weather by CustomWeather, © 2020

Note: Actual official high and low records may vary slightly from our data, if they occured in-between our weather recording intervals... More about our weather records

Feldkirchen in Kärnten Weather History for the Previous 24 Hours

Scroll right to see more
 ConditionsComfort  
Time TempWeatherWind HumidityBarometerVisibility
9:00 am
Thu, Oct 22
42 °FScattered clouds.2 mph90%30.20 "Hg17 mi
8:00 am41 °FScattered clouds.2 mph93%30.18 "Hg12 mi
7:00 am40 °FPassing clouds.2 mph93%30.18 "Hg12 mi
6:00 am42 °FQuite cool.3 mph91%30.16 "Hg9 mi
5:00 am42 °FQuite cool.2 mph90%30.15 "Hg12 mi
4:00 am44 °FQuite cool.3 mph87%30.15 "Hg14 mi
3:00 am44 °FQuite cool.2 mph89%30.15 "Hg10 mi
2:00 am41 °FQuite cool.1 mph87%30.16 "Hg11 mi
1:00 am42 °FQuite cool.1 mph90%30.15 "Hg10 mi
12:00 am44 °FQuite cool.1 mph88%30.14 "Hg17 mi
11:00 pm
Wed, Oct 21
48 °FCool.1 mph82%30.13 "Hg22 mi
10:00 pm51 °FCool.2 mph67%30.11 "Hg25 mi
9:00 pm54 °FCool.3 mph58%30.11 "Hg31 mi
8:00 pm57 °FRefreshingly cool.3 mph52%30.10 "Hg31 mi
7:00 pm59 °FPassing clouds.3 mph50%30.08 "Hg37 mi
6:00 pm61 °FScattered clouds.2 mph47%30.06 "Hg40 mi
5:00 pm65 °FScattered clouds.3 mph43%30.05 "Hg37 mi
4:00 pm65 °FScattered clouds.3 mph42%30.06 "Hg31 mi
3:00 pm65 °FScattered clouds.5 mph45%30.07 "Hg34 mi
2:00 pm63 °FScattered clouds.6 mph46%30.09 "Hg31 mi
1:00 pm58 °FPartly sunny.1 mph59%30.12 "Hg28 mi
12:00 pm55 °FPartly sunny.1 mph65%30.14 "Hg25 mi
11:00 am50 °FPartly sunny.1 mph84%30.16 "Hg14 mi
Weather by CustomWeather, © 2020

See weather overview